Date String (YYYY-MM-DD hh:mm:ss) UTC,Instrument flags,Ambient pressure (hPa),Sample flow (lpm),Bypass flow (lpm),Sample temperature (°C),Ambient temperature (°C),ASC tube jacket temperature (°C),LED temperature (°C),Box temperature (°C),Sample RH (%),Span deviation,Mass concentration (μg/m³),Mass concentration (μg/m³),Mass concentration (μg/m³)
DateTimeUTC,F1_M11,P_M11,Q1_M11,Q2_M11,T1_M11,T2_M11,T3_M11,T4_M11,T5_M11,U1_M11,ZSPAN_M11,X0_M11,X2_M11,X1_M11
2021-10-16 06:00:00,,0832.9,5.00,0.00,27.0,26.0,00.0,36.1,28.7,08.8,0000.0,0007.76,0002.70,0001.88
2021-10-16 06:01:00,,0832.8,5.00,0.00,27.0,26.0,00.0,36.1,28.7,09.0,0000.0,0007.49,0002.69,0001.89
2021-10-16 06:02:00,,0832.8,5.00,0.00,27.0,26.0,00.0,36.1,28.7,09.0,0000.0,0008.28,0002.73,0001.93
2021-10-16 06:03:00,,0832.8,4.99,0.00,27.0,26.0,00.0,36.1,28.8,09.1,0000.0,0008.53,0002.82,0001.97
2021-10-16 06:04:00,,0832.9,5.01,0.00,27.0,26.0,00.0,36.1,28.7,09.1,0000.0,0007.90,0002.88,0002.03
2021-10-16 06:05:00,,0832.8,5.01,0.00,27.0,26.0,00.0,36.1,28.7,09.1,0000.0,0007.71,0002.91,0002.07
2021-10-16 06:06:00,,0832.8,4.99,0.00,27.0,26.0,00.0,36.1,28.7,09.0,0000.0,0007.34,0002.95,0002.13
2021-10-16 06:07:00,,0832.9,5.02,0.00,27.0,26.0,00.0,36.1,28.7,08.8,0000.0,0007.35,0002.97,0002.15
2021-10-16 06:08:00,,0832.8,5.00,0.00,27.0,26.0,00.0,36.1,28.8,08.9,0000.0,0007.26,0002.99,0002.16
2021-10-16 06:09:00,,0832.8,4.99,0.00,27.0,26.0,00.0,36.1,28.7,08.8,0000.0,0007.20,0003.00,0002.18
2021-10-16 06:10:00,,0832.8,5.01,0.00,27.0,26.0,00.0,36.1,28.7,08.8,0000.0,0007.34,0003.07,0002.21
2021-10-16 06:11:00,,0832.8,4.99,0.00,27.0,26.0,00.0,36.1,28.7,08.8,0000.0,0007.84,0003.12,0002.26
2021-10-16 06:12:00,,0832.8,5.00,0.00,27.0,26.0,00.0,36.1,28.7,08.6,0000.0,0008.00,0003.13,0002.27
2021-10-16 06:13:00,,0832.8,5.00,0.00,27.0,26.0,00.0,36.1,28.7,08.6,0000.0,0007.10,0003.10,0002.26
2021-10-16 06:14:00,,0832.7,5.00,0.00,27.0,26.0,00.0,36.1,28.7,08.6,0000.0,0006.54,0003.05,0002.23
2021-10-16 06:15:00,,0832.7,5.01,0.00,27.0,26.0,00.0,36.1,28.7,08.7,0000.0,0006.35,0002.98,0002.19
2021-10-16 06:16:00,,0832.8,4.99,0.00,26.9,26.0,00.0,36.1,28.7,08.7,0000.0,0006.15,0002.90,0002.15
2021-10-16 06:17:00,,0832.8,5.00,0.00,26.9,26.0,00.0,36.1,28.7,08.7,0000.0,0006.09,0002.88,0002.12
2021-10-16 06:18:00,,0832.8,5.00,0.00,26.9,25.9,00.0,36.0,28.7,08.7,0000.0,0006.27,0002.92,0002.12
2021-10-16 06:19:00,,0832.8,4.99,0.00,26.9,25.9,00.0,36.0,28.7,08.6,0000.0,0006.70,0002.89,0002.12
2021-10-16 06:20:00,,0832.8,4.99,0.00,26.9,25.9,00.0,36.0,28.6,08.7,0000.0,0006.76,0002.91,0002.12
2021-10-16 06:21:00,,0832.7,5.01,0.00,26.9,25.9,00.0,36.0,28.6,08.8,0000.0,0006.85,0002.98,0002.13
2021-10-16 06:22:00,,0832.7,5.00,0.00,26.9,25.9,00.0,36.0,28.6,08.8,0000.0,0006.64,0002.97,0002.13
2021-10-16 06:23:00,,0832.7,4.99,0.00,26.9,25.9,00.0,36.0,28.6,08.7,0000.0,0007.25,0002.97,0002.15
2021-10-16 06:24:00,,0832.8,5.01,0.00,26.9,25.9,00.0,36.0,28.6,08.8,0000.0,0008.20,0003.04,0002.17
2021-10-16 06:25:00,,0832.8,5.00,0.00,26.9,25.9,00.0,36.0,28.6,08.8,0000.0,0008.57,0003.08,0002.19
2021-10-16 06:26:00,,0832.8,5.00,0.00,26.8,25.8,00.0,36.0,28.6,08.8,0000.0,0009.23,0003.13,0002.21
2021-10-16 06:27:00,,0832.8,5.01,0.00,26.8,25.8,00.0,36.0,28.6,08.8,0000.0,0009.70,0003.18,0002.25
2021-10-16 06:28:00,,0832.8,5.00,0.00,26.8,25.8,00.0,36.0,28.6,08.6,0000.0,0009.69,0003.21,0002.30
2021-10-16 06:29:00,,0832.8,4.99,0.00,26.8,25.8,00.0,35.9,28.6,08.5,0000.0,0009.59,0003.21,0002.35
2021-10-16 06:30:00,,0832.8,5.00,0.00,26.8,25.8,00.0,35.9,28.5,08.5,0000.0,0009.30,0003.20,0002.38
2021-10-16 06:31:00,,0832.8,5.01,0.00,26.7,25.7,00.0,35.9,28.5,08.6,0000.0,0009.65,0003.27,0002.42
2021-10-16 06:32:00,,0832.7,4.99,0.00,26.7,25.7,00.0,35.9,28.5,08.6,0000.0,0009.74,0003.26,0002.44
2021-10-16 06:33:00,,0832.7,5.01,0.00,26.7,25.7,00.0,35.9,28.5,08.7,0000.0,0009.45,0003.22,0002.44
2021-10-16 06:34:00,,0832.7,4.99,0.00,26.7,25.7,00.0,35.9,28.4,08.7,0000.0,0008.68,0003.24,0002.45
2021-10-16 06:35:00,,0832.7,5.01,0.00,26.7,25.7,00.0,35.8,28.4,08.7,0000.0,0007.94,0003.24,0002.48
2021-10-16 06:36:00,,0832.7,4.99,0.00,26.7,25.7,00.0,35.8,28.4,08.6,0000.0,0007.74,0003.24,0002.47
2021-10-16 06:37:00,,0832.8,5.00,0.00,26.7,25.7,00.0,35.8,28.4,08.6,0000.0,0007.07,0003.22,0002.47
2021-10-16 06:38:00,,0832.7,5.01,0.00,26.7,25.7,00.0,35.8,28.4,08.6,0000.0,0006.30,0003.18,0002.43
2021-10-16 06:39:00,,0832.7,5.00,0.00,26.7,25.8,00.0,35.8,28.5,08.6,0000.0,0006.21,0003.11,0002.38
2021-10-16 06:40:00,,0832.7,4.99,0.00,26.7,25.8,00.0,35.8,28.4,08.6,0000.0,0006.02,0003.01,0002.30
2021-10-16 06:41:00,,0832.8,5.00,0.00,26.7,25.8,00.0,35.8,28.4,08.6,0000.0,0006.11,0002.96,0002.25
2021-10-16 06:42:00,,0832.8,5.00,0.00,26.7,25.7,00.0,35.8,28.4,08.6,0000.0,0005.80,0002.87,0002.20
2021-10-16 06:43:00,,0832.7,5.00,0.00,26.7,25.7,00.0,35.8,28.5,08.7,0000.0,0005.32,0002.78,0002.15
2021-10-16 06:44:00,,0832.8,5.00,0.00,26.6,25.7,00.0,35.8,28.5,08.8,0000.0,0005.53,0002.82,0002.13
2021-10-16 06:45:00,,0832.8,5.00,0.00,26.6,25.7,00.0,35.8,28.4,08.8,0000.0,0005.63,0002.81,0002.11
2021-10-16 06:46:00,,0832.8,5.00,0.00,26.6,25.7,00.0,35.8,28.4,08.9,0000.0,0005.75,0002.84,0002.11
2021-10-16 06:47:00,,0832.8,5.01,0.00,26.6,25.7,00.0,35.8,28.4,09.0,0000.0,0005.50,0002.85,0002.13
2021-10-16 06:48:00,,0832.8,5.00,0.00,26.6,25.7,00.0,35.8,28.4,09.0,0000.0,0005.53,0002.89,0002.15
2021-10-16 06:49:00,,0832.8,4.98,0.00,26.6,25.7,00.0,35.8,28.4,09.0,0000.0,0005.65,0002.95,0002.16
2021-10-16 06:50:00,,0832.8,5.01,0.00,26.6,25.7,00.0,35.8,28.4,09.0,0000.0,0005.82,0003.04,0002.20
2021-10-16 06:51:00,,0832.8,5.00,0.00,26.6,25.7,00.0,35.7,28.4,09.0,0000.0,0006.04,0003.13,0002.24
2021-10-16 06:52:00,,0832.8,4.99,0.00,26.6,25.7,00.0,35.7,28.4,09.2,0000.0,0006.22,0003.18,0002.28
2021-10-16 06:53:00,,0832.8,5.00,0.00,26.6,25.7,00.0,35.7,28.3,09.2,0000.0,0006.91,0003.24,0002.31
2021-10-16 06:54:00,,0832.8,5.01,0.00,26.6,25.7,00.0,35.7,28.3,09.3,0000.0,0006.93,0003.25,0002.33
2021-10-16 06:55:00,,0832.8,5.00,0.00,26.6,25.7,00.0,35.7,28.3,09.3,0000.0,0006.85,0003.26,0002.35
2021-10-16 06:56:00,,0832.8,5.01,0.00,26.6,25.7,00.0,35.7,28.4,09.3,0000.0,0007.42,0003.33,0002.37
2021-10-16 06:57:00,,0832.8,4.99,0.00,26.6,25.7,00.0,35.7,28.4,09.2,0000.0,0007.58,0003.32,0002.37
2021-10-16 06:58:00,,0832.7,5.01,0.00,26.6,25.7,00.0,35.7,28.4,09.3,0000.0,0007.76,0003.36,0002.36
2021-10-16 06:59:00,,0832.8,4.99,0.00,26.6,25.7,00.0,35.7,28.4,09.3,0000.0,0007.77,0003.38,0002.37
